Date String (YYYY-MM-DD hh:mm:ss) UTC,Instrument flags,absolute air pressure of the measurement (hPa),sample flow rate (lpm),inlet stack bypass flow (lpm),air temperature of the measurement (°C),ambient temperature measured by the external sensor (°C),aerosol sample conditioner tube jacket temperature (°C),OPC LED temperature (°C),internal box temperature (°C),relative humidity of the measurement (%),span deviation,mass concentration of particles derived from Lorenz-Mie calculation of OPC scattering (μg/m³),mass concentration of particles derived from Lorenz-Mie calculation of OPC scattering (μg/m³),mass concentration of particles derived from Lorenz-Mie calculation of OPC scattering (μg/m³)
DateTimeUTC,F1_M11,P_M11,Q1_M11,Q2_M11,T1_M11,T2_M11,T3_M11,T4_M11,T5_M11,U1_M11,ZSPAN_M11,X2_M11,X0_M11,X1_M11
2023-11-16 01:00:00,SystemResetWarning,0829.8,5.00,000.00,028.1,026.9,000.0,036.5,029.4,7.0,0000.0,0003.23,0011.20,0001.99
2023-11-16 01:01:00,SystemResetWarning,0829.8,5.00,000.00,028.1,026.9,000.0,036.5,029.4,6.9,0000.0,0003.18,0011.00,0001.99
2023-11-16 01:02:00,SystemResetWarning,0829.8,5.00,000.00,028.1,026.9,000.0,036.5,029.4,6.9,0000.0,0003.14,0010.68,0001.97
2023-11-16 01:03:00,SystemResetWarning,0829.7,5.01,000.00,028.1,026.9,000.0,036.5,029.4,6.9,0000.0,0003.13,0010.23,0001.98
2023-11-16 01:04:00,SystemResetWarning,0829.7,5.00,000.00,028.1,026.9,000.0,036.5,029.5,6.9,0000.0,0003.13,0010.94,0002.02
2023-11-16 01:05:00,SystemResetWarning,0829.7,5.00,000.00,028.1,026.9,000.0,036.5,029.5,6.9,0000.0,0003.16,0011.08,0002.02
2023-11-16 01:06:00,SystemResetWarning,0829.7,4.99,000.00,028.1,026.9,000.0,036.5,029.5,7.1,0000.0,0003.16,0011.17,0002.04
2023-11-16 01:07:00,SystemResetWarning,0829.8,5.00,000.00,028.1,026.9,000.0,036.5,029.5,7.3,0000.0,0003.18,0010.01,0002.04
2023-11-16 01:08:00,SystemResetWarning,0829.7,5.00,000.00,028.1,026.9,000.0,036.5,029.4,7.4,0000.0,0003.18,0009.51,0002.04
2023-11-16 01:09:00,SystemResetWarning,0829.8,5.01,000.00,028.1,026.9,000.0,036.5,029.4,7.3,0000.0,0003.21,0009.64,0002.06
2023-11-16 01:10:00,SystemResetWarning,0829.8,5.01,000.00,028.1,026.9,000.0,036.5,029.4,7.2,0000.0,0003.21,0009.44,0002.05
2023-11-16 01:11:00,SystemResetWarning,0829.7,5.01,000.00,028.1,026.8,000.0,036.5,029.4,7.1,0000.0,0003.22,0009.01,0002.06
2023-11-16 01:12:00,SystemResetWarning,0829.7,5.00,000.00,028.1,026.8,000.0,036.5,029.4,7.1,0000.0,0003.21,0009.19,0002.07
2023-11-16 01:13:00,SystemResetWarning,0829.7,5.01,000.00,028.1,026.8,000.0,036.5,029.4,7.1,0000.0,0003.24,0009.40,0002.09
2023-11-16 01:14:00,SystemResetWarning,0829.7,5.00,000.00,028.1,026.8,000.0,036.4,029.4,7.0,0000.0,0003.26,0009.39,0002.10
2023-11-16 01:15:00,SystemResetWarning,0829.7,5.00,000.00,028.1,026.8,000.0,036.4,029.4,7.0,0000.0,0003.24,0009.09,0002.07
2023-11-16 01:16:00,SystemResetWarning,0829.7,5.00,000.00,028.1,026.8,000.0,036.4,029.4,6.9,0000.0,0003.26,0009.82,0002.09
2023-11-16 01:17:00,SystemResetWarning,0829.7,5.00,000.00,028.0,026.8,000.0,036.4,029.4,7.2,0000.0,0003.27,0009.66,0002.08
2023-11-16 01:18:00,SystemResetWarning,0829.7,5.00,000.00,028.0,026.8,000.0,036.4,029.4,7.2,0000.0,0003.29,0010.95,0002.09
2023-11-16 01:19:00,SystemResetWarning,0829.7,5.00,000.00,028.0,026.8,000.0,036.4,029.4,7.2,0000.0,0003.32,0011.02,0002.10
2023-11-16 01:20:00,SystemResetWarning,0829.8,5.00,000.00,028.0,026.8,000.0,036.4,029.3,7.1,0000.0,0003.32,0010.91,0002.10
2023-11-16 01:21:00,SystemResetWarning,0829.7,5.00,000.00,028.0,026.8,000.0,036.4,029.3,7.0,0000.0,0003.33,0011.22,0002.12
2023-11-16 01:22:00,SystemResetWarning,0829.7,5.00,000.00,028.0,026.8,000.0,036.4,029.3,6.9,0000.0,0003.32,0011.25,0002.14
2023-11-16 01:23:00,SystemResetWarning,0829.7,5.00,000.00,028.0,026.8,000.0,036.4,029.3,7.0,0000.0,0003.32,0011.52,0002.14
2023-11-16 01:24:00,SystemResetWarning,0829.8,5.01,000.00,028.0,026.8,000.0,036.4,029.3,7.2,0000.0,0003.30,0012.11,0002.13
2023-11-16 01:25:00,SystemResetWarning,0829.7,5.00,000.00,028.0,026.8,000.0,036.4,029.3,7.2,0000.0,0003.26,0011.99,0002.13
2023-11-16 01:26:00,SystemResetWarning,0829.7,5.01,000.00,028.0,026.7,000.0,036.4,029.3,7.1,0000.0,0003.28,0012.07,0002.14
2023-11-16 01:27:00,SystemResetWarning,0829.7,4.99,000.00,028.0,026.7,000.0,036.4,029.3,7.0,0000.0,0003.27,0011.25,0002.14
2023-11-16 01:28:00,SystemResetWarning,0829.7,4.99,000.00,028.0,026.7,000.0,036.4,029.3,7.0,0000.0,0003.23,0010.72,0002.14
2023-11-16 01:29:00,SystemResetWarning,0829.7,5.00,000.00,028.0,026.7,000.0,036.4,029.3,6.9,0000.0,0003.20,0009.36,0002.15
2023-11-16 01:30:00,SystemResetWarning,0829.7,5.01,000.00,027.9,026.7,000.0,036.4,029.3,6.9,0000.0,0003.16,0009.11,0002.15
2023-11-16 01:31:00,SystemResetWarning,0829.7,5.01,000.00,027.9,026.7,000.0,036.4,029.3,6.9,0000.0,0003.18,0009.14,0002.16
2023-11-16 01:32:00,SystemResetWarning,0829.7,5.00,000.00,027.9,026.7,000.0,036.4,029.3,7.0,0000.0,0003.18,0008.64,0002.15
2023-11-16 01:33:00,SystemResetWarning,0829.6,4.99,000.00,027.9,026.7,000.0,036.4,029.3,7.0,0000.0,0003.22,0008.61,0002.15
2023-11-16 01:34:00,SystemResetWarning,0829.6,4.99,000.00,027.9,026.7,000.0,036.4,029.3,7.0,0000.0,0003.24,0008.51,0002.14
2023-11-16 01:35:00,SystemResetWarning,0829.5,5.01,000.00,027.9,026.7,000.0,036.4,029.2,7.0,0000.0,0003.27,0008.79,0002.14
2023-11-16 01:36:00,SystemResetWarning,0829.5,5.01,000.00,027.9,026.7,000.0,036.4,029.3,7.0,0000.0,0003.30,0009.38,0002.14
2023-11-16 01:37:00,SystemResetWarning,0829.3,5.01,000.00,027.9,026.7,000.0,036.4,029.3,7.0,0000.0,0003.29,0009.22,0002.16
2023-11-16 01:38:00,SystemResetWarning,0829.3,4.99,000.00,027.9,026.7,000.0,036.4,029.3,7.0,0000.0,0003.30,0009.37,0002.19
2023-11-16 01:39:00,SystemResetWarning,0829.4,4.99,000.00,027.9,026.7,000.0,036.4,029.3,7.0,0000.0,0003.32,0009.54,0002.20
2023-11-16 01:40:00,SystemResetWarning,0829.4,5.00,000.00,027.9,026.7,000.0,036.4,029.3,7.0,0000.0,0003.36,0009.60,0002.22
2023-11-16 01:41:00,SystemResetWarning,0829.4,5.00,000.00,027.9,026.7,000.0,036.3,029.3,7.0,0000.0,0003.36,0010.00,0002.23
2023-11-16 01:42:00,SystemResetWarning,0829.3,5.01,000.00,027.9,026.7,000.0,036.3,029.3,7.0,0000.0,0003.32,0010.39,0002.23
2023-11-16 01:43:00,SystemResetWarning,0829.3,5.01,000.00,027.9,026.7,000.0,036.3,029.3,7.0,0000.0,0003.34,0010.38,0002.25
2023-11-16 01:44:00,SystemResetWarning,0829.3,5.00,000.00,027.9,026.7,000.0,036.3,029.3,7.0,0000.0,0003.35,0011.16,0002.28
2023-11-16 01:45:00,SystemResetWarning,0829.3,5.00,000.00,027.9,026.7,000.0,036.3,029.3,7.0,0000.0,0003.33,0011.91,0002.30
2023-11-16 01:46:00,SystemResetWarning,0829.4,4.99,000.00,027.9,026.7,000.0,036.3,029.3,7.0,0000.0,0003.39,0011.38,0002.34
2023-11-16 01:47:00,SystemResetWarning,0829.4,4.99,000.00,027.9,026.7,000.0,036.3,029.3,7.0,0000.0,0003.43,0010.79,0002.38
2023-11-16 01:48:00,SystemResetWarning,0829.4,4.99,000.00,027.9,026.7,000.0,036.3,029.3,7.0,0000.0,0003.47,0011.22,0002.39
2023-11-16 01:49:00,SystemResetWarning,0829.3,5.00,000.00,027.9,026.7,000.0,036.3,029.3,7.0,0000.0,0003.50,0010.74,0002.38
2023-11-16 01:50:00,SystemResetWarning,0829.2,5.00,000.00,027.9,026.8,000.0,036.3,029.3,7.0,0000.0,0003.51,0011.68,0002.40
2023-11-16 01:51:00,SystemResetWarning,0829.2,5.01,000.00,027.9,026.8,000.0,036.3,029.4,7.0,0000.0,0003.48,0011.67,0002.41
2023-11-16 01:52:00,SystemResetWarning,0829.1,5.00,000.00,028.0,026.9,000.0,036.3,029.4,7.0,0000.0,0003.48,0011.92,0002.43
2023-11-16 01:53:00,SystemResetWarning,0829.1,5.00,000.00,028.0,026.9,000.0,036.3,029.4,7.0,0000.0,0003.50,0012.13,0002.46
2023-11-16 01:54:00,SystemResetWarning,0829.0,5.00,000.00,028.0,027.0,000.0,036.3,029.4,6.9,0000.0,0003.50,0012.18,0002.46
2023-11-16 01:55:00,SystemResetWarning,0829.0,4.99,000.00,028.0,027.0,000.0,036.3,029.4,6.9,0000.0,0003.52,0012.38,0002.50
2023-11-16 01:56:00,SystemResetWarning,0829.0,5.00,000.00,028.0,027.0,000.0,036.4,029.5,6.9,0000.0,0003.55,0012.40,0002.52
2023-11-16 01:57:00,SystemResetWarning,0828.9,5.00,000.00,028.0,027.1,000.0,036.4,029.5,6.9,0000.0,0003.55,0013.09,0002.53
2023-11-16 01:58:00,SystemResetWarning,0829.0,5.00,000.00,028.0,027.1,000.0,036.4,029.5,7.1,0000.0,0003.55,0013.29,0002.55
2023-11-16 01:59:00,SystemResetWarning,0829.0,5.00,000.00,028.0,027.0,000.0,036.4,029.4,7.1,0000.0,0003.54,0013.62,0002.57
